| time (UTC) | temp F | wind direction | speed MPH | gust MPH | rain 1hr in | rain 24hr in | rain mn in | humidity % | barometer mb |
| 20260510185112 | 66 | 152 | 6.0 | 9.0 | 0.00 | 0.00 | 0.00 | 47 | 1009.4 |
| 20260510184112 | 67 | 128 | 5.0 | 9.0 | 0.00 | 0.00 | 0.00 | 46 | 1009.3 |
| 20260510183127 | 68 | 131 | 6.0 | 9.0 | 0.00 | 0.00 | 0.00 | 45 | 1009.3 |
| 20260510182112 | 68 | 150 | 6.0 | 9.0 | 0.00 | 0.00 | 0.00 | 45 | 1009.4 |
| 20260510181112 | 69 | 147 | 8.0 | 11.0 | 0.00 | 0.00 | 0.00 | 44 | 1009.4 |
| 20260510180112 | 69 | 153 | 7.0 | 11.0 | 0.00 | 0.00 | 0.00 | 43 | 1009.4 |
| 20260510175111 | 70 | 144 | 8.0 | 12.0 | 0.00 | 0.00 | 0.00 | 42 | 1009.6 |
| 20260510174112 | 70 | 148 | 9.0 | 11.0 | 0.00 | 0.00 | 0.00 | 42 | 1009.6 |
| 20260510173112 | 70 | 157 | 7.0 | 14.0 | 0.00 | 0.00 | 0.00 | 41 | 1009.6 |
| 20260510172112 | 70 | 161 | 10.0 | 15.0 | 0.00 | 0.00 | 0.00 | 41 | 1009.7 |
| 20260510171112 | 70 | 155 | 12.0 | 15.0 | 0.00 | 0.00 | 0.00 | 41 | 1009.8 |
| 20260510170112 | 71 | 143 | 7.0 | 12.0 | 0.00 | 0.00 | 0.00 | 41 | 1009.8 |
| 20260510165111 | 71 | 151 | 10.0 | 18.0 | 0.00 | 0.00 | 0.00 | 41 | 1010.0 |
| 20260510164112 | 71 | 164 | 13.0 | 23.0 | 0.00 | 0.00 | 0.00 | 40 | 1010.2 |
| 20260510163111 | 71 | 164 | 10.0 | 18.0 | 0.00 | 0.00 | 0.00 | 39 | 1010.3 |
| 20260510162111 | 71 | 180 | 11.0 | 21.0 | 0.00 | 0.00 | 0.00 | 40 | 1010.3 |
| 20260510161111 | 71 | 154 | 13.0 | 21.0 | 0.00 | 0.00 | 0.00 | 40 | 1010.4 |
| 20260510160111 | 72 | 194 | 9.0 | 17.0 | 0.00 | 0.00 | 0.00 | 39 | 1010.5 |
| 20260510155111 | 72 | 148 | 10.0 | 18.0 | 0.00 | 0.00 | 0.00 | 40 | 1010.5 |
| 20260510154111 | 73 | 163 | 14.0 | 23.0 | 0.00 | 0.00 | 0.00 | 38 | 1010.7 |
| 20260510153111 | 73 | 180 | 15.0 | 21.0 | 0.00 | 0.00 | 0.00 | 37 | 1010.8 |
| 20260510152111 | 74 | 202 | 16.0 | 23.0 | 0.00 | 0.00 | 0.00 | 36 | 1011.0 |
| 20260510151111 | 74 | 139 | 11.0 | 17.0 | 0.00 | 0.00 | 0.00 | 38 | 1011.0 |
| 20260510150111 | 73 | 186 | 8.0 | 19.0 | 0.00 | 0.00 | 0.00 | 38 | 1011.1 |
| 20260510145111 | 73 | 187 | 9.0 | 22.0 | 0.00 | 0.00 | 0.00 | 38 | 1011.2 |
| 20260510144111 | 74 | 191 | 16.0 | 22.0 | 0.00 | 0.00 | 0.00 | 37 | 1011.2 |
| 20260510143111 | 74 | 162 | 13.0 | 19.0 | 0.00 | 0.00 | 0.00 | 36 | 1011.3 |
| 20260510142111 | 74 | 152 | 10.0 | 15.0 | 0.00 | 0.00 | 0.00 | 36 | 1011.4 |
| 20260510141111 | 74 | 167 | 13.0 | 19.0 | 0.00 | 0.00 | 0.00 | 36 | 1011.5 |
| 20260510140111 | 75 | 205 | 16.0 | 21.0 | 0.00 | 0.00 | 0.00 | 35 | 1011.6 |
| 20260510135112 | 74 | 171 | 14.0 | 25.0 | 0.00 | 0.00 | 0.00 | 36 | 1011.8 |
| 20260510134111 | 75 | 163 | 15.0 | 20.0 | 0.00 | 0.00 | 0.00 | 35 | 1012.0 |
| 20260510133111 | 75 | 176 | 11.0 | 20.0 | 0.00 | 0.00 | 0.00 | 35 | 1012.1 |
| 20260510132111 | 75 | 127 | 16.0 | 21.0 | 0.00 | 0.00 | 0.00 | 35 | 1012.5 |
| 20260510131111 | 74 | 154 | 15.0 | 21.0 | 0.00 | 0.00 | 0.00 | 35 | 1012.7 |
| 20260510130111 | 75 | 119 | 12.0 | 18.0 | 0.00 | 0.00 | 0.00 | 36 | 1012.8 |
| 20260510125111 | 74 | 178 | 11.0 | 17.0 | 0.00 | 0.00 | 0.00 | 36 | 1012.9 |
| 20260510124111 | 73 | 178 | 10.0 | 15.0 | 0.00 | 0.00 | 0.00 | 36 | 1013.1 |
| 20260510123111 | 74 | 191 | 9.0 | 14.0 | 0.00 | 0.00 | 0.00 | 34 | 1013.4 |
| 20260510121111 | 74 | 188 | 10.0 | 16.0 | 0.00 | 0.00 | 0.00 | 36 | 1013.8 |
| 20260510120111 | 73 | 128 | 5.0 | 22.0 | 0.00 | 0.00 | 0.00 | 36 | 1013.9 |
| 20260510115111 | 73 | 173 | 13.0 | 22.0 | 0.00 | 0.00 | 0.00 | 36 | 1014.1 |
| 20260510114111 | 74 | 194 | 13.0 | 22.0 | 0.00 | 0.00 | 0.00 | 35 | 1014.1 |
| 20260510113111 | 73 | 147 | 14.0 | 21.0 | 0.00 | 0.00 | 0.00 | 36 | 1014.3 |
| 20260510112111 | 72 | 150 | 13.0 | 23.0 | 0.00 | 0.00 | 0.00 | 36 | 1014.5 |
| 20260510111111 | 72 | 171 | 12.0 | 20.0 | 0.00 | 0.00 | 0.00 | 36 | 1014.7 |
| 20260510110110 | 72 | 111 | 10.0 | 14.0 | 0.00 | 0.00 | 0.00 | 36 | 1014.7 |
| 20260510105110 | 71 | 134 | 14.0 | 17.0 | 0.00 | 0.00 | 0.00 | 38 | 1015.0 |
| 20260510104111 | 71 | 126 | 5.0 | 19.0 | 0.00 | 0.00 | 0.00 | 36 | 1015.1 |
| 20260510103110 | 71 | 134 | 12.0 | 18.0 | 0.00 | 0.00 | 0.00 | 36 | 1015.2 |
| 20260510102111 | 71 | 126 | 11.0 | 15.0 | 0.00 | 0.00 | 0.00 | 37 | 1015.3 |
| 20260510101110 | 70 | 89 | 8.0 | 16.0 | 0.00 | 0.00 | 0.00 | 37 | 1015.3 |
| 20260510100110 | 69 | 121 | 10.0 | 14.0 | 0.00 | 0.00 | 0.00 | 39 | 1015.5 |
| 20260510095110 | 69 | 115 | 12.0 | 19.0 | 0.00 | 0.00 | 0.00 | 37 | 1015.6 |
| 20260510094110 | 69 | 122 | 5.0 | 13.0 | 0.00 | 0.00 | 0.00 | 37 | 1015.9 |
| 20260510093110 | 69 | 147 | 10.0 | 14.0 | 0.00 | 0.00 | 0.00 | 37 | 1016.0 |
| 20260510092110 | 67 | 134 | 9.0 | 11.0 | 0.00 | 0.00 | 0.00 | 40 | 1016.2 |
| 20260510091110 | 67 | 146 | 4.0 | 12.0 | 0.00 | 0.00 | 0.00 | 37 | 1016.3 |
| 20260510090110 | 67 | 115 | 7.0 | 9.0 | 0.00 | 0.00 | 0.00 | 38 | 1016.6 |
| 20260510085110 | 67 | 138 | 1.0 | 7.0 | 0.00 | 0.00 | 0.00 | 37 | 1016.6 |
| 20260510084110 | 66 | 113 | 4.0 | 9.0 | 0.00 | 0.00 | 0.00 | 40 | 1016.8 |
| 20260510083110 | 65 | 134 | 2.0 | 8.0 | 0.00 | 0.00 | 0.00 | 41 | 1016.9 |
| 20260510081110 | 65 | 142 | 1.0 | 4.0 | 0.00 | 0.00 | 0.00 | 42 | 1017.1 |
| 20260510075110 | 63 | 136 | 3.0 | 4.0 | 0.00 | 0.00 | 0.00 | 43 | 1017.2 |
| 20260510074110 | 62 | 141 | 0.0 | 3.0 | 0.00 | 0.00 | 0.00 | 43 | 1017.3 |
| 20260510072110 | 61 | 123 | 4.0 | 6.0 | 0.00 | 0.00 | 0.00 | 45 | 1017.4 |
| 20260510070110 | 59 | 116 | 1.0 | 3.0 | 0.00 | 0.00 | 0.00 | 49 | 1017.5 |
| 20260510065110 | 58 | 115 | 3.0 | 4.0 | 0.00 | 0.00 | 0.00 | 50 | 1017.5 |
| 20260510064110 | 57 | 318 | 0.0 | 2.0 | 0.00 | 0.00 | 0.00 | 51 | 1017.6 |
| 20260510063110 | 56 | 323 | 2.0 | 3.0 | 0.00 | 0.00 | 0.00 | 55 | 1017.9 |
| 20260510062110 | 55 | 11 | 2.0 | 4.0 | 0.00 | 0.00 | 0.00 | 54 | 1017.8 |
| 20260510060110 | 54 | 360 | 4.0 | 5.0 | 0.00 | 0.00 | 0.00 | 57 | 1017.9 |
| 20260510055110 | 53 | 345 | 1.0 | 3.0 | 0.00 | 0.00 | 0.00 | 58 | 1018.0 |
| 20260510054110 | 52 | 346 | 1.0 | 4.0 | 0.00 | 0.00 | 0.00 | 59 | 1018.1 |
| 20260510053110 | 51 | 297 | 3.0 | 4.0 | 0.00 | 0.00 | 0.00 | 60 | 1018.1 |
| 20260510052110 | 50 | 355 | 2.0 | 6.0 | 0.00 | 0.00 | 0.00 | 60 | 1018.0 |
| 20260510051110 | 49 | 360 | 3.0 | 4.0 | 0.00 | 0.00 | 0.00 | 62 | 1018.0 |
| 20260510050110 | 48 | 319 | 4.0 | 5.0 | 0.00 | 0.00 | 0.00 | 63 | 1017.9 |
| 20260510045110 | 47 | 340 | 3.0 | 5.0 | 0.00 | 0.00 | 0.00 | 64 | 1018.1 |
| 20260510044110 | 46 | 9 | 0.0 | 2.0 | 0.00 | 0.00 | 0.00 | 65 | 1018.0 |
| 20260510043110 | 46 | 10 | 3.0 | 4.0 | 0.00 | 0.00 | 0.00 | 66 | 1018.1 |
| 20260510042110 | 44 | 319 | 0.0 | 2.0 | 0.00 | 0.00 | 0.00 | 67 | 1018.1 |
| 20260510041110 | 44 | 297 | 4.0 | 5.0 | 0.00 | 0.00 | 0.00 | 66 | 1018.2 |
| 20260510040110 | 44 | 322 | 3.0 | 4.0 | 0.00 | 0.00 | 0.00 | 66 | 1018.1 |
| 20260510035110 | 44 | 360 | 2.0 | 3.0 | 0.00 | 0.00 | 0.00 | 67 | 1018.1 |
| 20260510034110 | 44 | 311 | 4.0 | 6.0 | 0.00 | 0.00 | 0.00 | 66 | 1018.1 |
| 20260510033110 | 44 | 338 | 4.0 | 5.0 | 0.00 | 0.00 | 0.00 | 67 | 1018.1 |
| 20260510032109 | 44 | 348 | 4.0 | 5.0 | 0.00 | 0.00 | 0.00 | 66 | 1018.0 |
| 20260510031110 | 44 | 322 | 4.0 | 6.0 | 0.00 | 0.00 | 0.00 | 66 | 1018.1 |
| 20260510030109 | 44 | 327 | 4.0 | 7.0 | 0.00 | 0.00 | 0.00 | 64 | 1018.2 |
| 20260510025109 | 44 | 319 | 0.0 | 3.0 | 0.00 | 0.00 | 0.00 | 65 | 1018.1 |
| 20260510024109 | 45 | 319 | 3.0 | 3.0 | 0.00 | 0.00 | 0.00 | 65 | 1018.2 |
| 20260510022109 | 46 | 319 | 0.0 | 2.0 | 0.00 | 0.00 | 0.00 | 63 | 1018.4 |
| 20260510021109 | 46 | 319 | 0.0 | 2.0 | 0.00 | 0.00 | 0.00 | 63 | 1018.3 |
| 20260510020109 | 46 | 304 | 3.0 | 5.0 | 0.00 | 0.00 | 0.00 | 63 | 1018.2 |
| 20260510015109 | 47 | 300 | 3.0 | 4.0 | 0.00 | 0.00 | 0.00 | 62 | 1018.4 |
| 20260510014109 | 47 | 322 | 4.0 | 6.0 | 0.00 | 0.00 | 0.00 | 62 | 1018.1 |
| 20260510013109 | 47 | 338 | 7.0 | 10.0 | 0.00 | 0.00 | 0.00 | 62 | 1018.1 |
| 20260510012109 | 47 | 315 | 6.0 | 9.0 | 0.00 | 0.00 | 0.00 | 62 | 1018.0 |
| 20260510011109 | 48 | 334 | 7.0 | 9.0 | 0.00 | 0.00 | 0.00 | 62 | 1018.1 |
| 20260510010109 | 48 | 355 | 7.0 | 10.0 | 0.00 | 0.00 | 0.00 | 62 | 1018.2 |
| 20260510004110 | 48 | 323 | 6.0 | 10.0 | 0.00 | 0.00 | 0.00 | 60 | 1018.4 |
| 20260510003110 | 48 | 317 | 5.0 | 8.0 | 0.00 | 0.00 | 0.00 | 59 | 1018.5 |
| 20260510002110 | 49 | 331 | 5.0 | 9.0 | 0.00 | 0.00 | 0.00 | 59 | 1018.5 |
| 20260510001110 | 49 | 344 | 6.0 | 8.0 | 0.00 | 0.00 | 0.00 | 59 | 1018.6 |
| 20260510000110 | 49 | 335 | 4.0 | 8.0 | 0.00 | 0.00 | 0.00 | 58 | 1018.7 |
| 20260509235110 | 50 | 337 | 4.0 | 6.0 | 0.00 | 0.00 | 0.00 | 58 | 1018.8 |
| 20260509234110 | 50 | 321 | 6.0 | 8.0 | 0.00 | 0.00 | 0.00 | 57 | 1019.0 |
| 20260509233110 | 50 | 334 | 5.0 | 8.0 | 0.00 | 0.00 | 0.00 | 57 | 1019.2 |
| 20260509232110 | 51 | 348 | 4.0 | 6.0 | 0.00 | 0.00 | 0.00 | 56 | 1019.2 |
| 20260509231110 | 51 | 337 | 4.0 | 6.0 | 0.00 | 0.00 | 0.00 | 56 | 1019.6 |
| 20260509230110 | 51 | 346 | 2.0 | 4.0 | 0.00 | 0.00 | 0.00 | 56 | 1019.5 |
| 20260509225110 | 51 | 346 | 3.0 | 6.0 | 0.00 | 0.00 | 0.00 | 56 | 1019.7 |
| 20260509224110 | 51 | 355 | 3.0 | 8.0 | 0.00 | 0.00 | 0.00 | 56 | 1019.7 |
| 20260509223110 | 51 | 336 | 4.0 | 7.0 | 0.00 | 0.00 | 0.00 | 56 | 1019.8 |
| 20260509222110 | 51 | 298 | 4.0 | 7.0 | 0.00 | 0.00 | 0.00 | 56 | 1019.7 |
| 20260509220109 | 51 | 290 | 5.0 | 8.0 | 0.00 | 0.00 | 0.00 | 55 | 1019.6 |
| 20260509214113 | 51 | 294 | 6.0 | 7.0 | 0.00 | 0.00 | 0.00 | 54 | 1019.7 |
| 20260509213114 | 52 | 323 | 3.0 | 9.0 | 0.00 | 0.00 | 0.00 | 53 | 1019.6 |
| 20260509211114 | 53 | 296 | 3.0 | 5.0 | 0.00 | 0.00 | 0.00 | 52 | 1019.7 |
| 20260509210113 | 53 | 304 | 3.0 | 5.0 | 0.00 | 0.00 | 0.00 | 51 | 1019.7 |
| 20260509204113 | 54 | 360 | 4.0 | 9.0 | 0.00 | 0.00 | 0.00 | 50 | 1019.7 |
| 20260509203113 | 55 | 329 | 3.0 | 5.0 | 0.00 | 0.00 | 0.00 | 49 | 1019.8 |
| 20260509202113 | 55 | 26 | 0.0 | 7.0 | 0.00 | 0.00 | 0.00 | 49 | 1019.9 |
| 20260509201113 | 56 | 18 | 4.0 | 8.0 | 0.00 | 0.00 | 0.00 | 48 | 1019.8 |
| 20260509200113 | 56 | 360 | 5.0 | 10.0 | 0.00 | 0.00 | 0.00 | 47 | 1019.7 |
| 20260509195113 | 56 | 32 | 8.0 | 11.0 | 0.00 | 0.00 | 0.00 | 47 | 1019.7 |
| 20260509194113 | 57 | 355 | 4.0 | 10.0 | 0.00 | 0.00 | 0.00 | 47 | 1019.7 |
| 20260509193128 | 57 | 30 | 5.0 | 9.0 | 0.00 | 0.00 | 0.00 | 47 | 1019.5 |
| 20260509192113 | 58 | 34 | 7.0 | 10.0 | 0.00 | 0.00 | 0.00 | 46 | 1019.5 |
| 20260509190113 | 58 | 28 | 3.0 | 9.0 | 0.00 | 0.00 | 0.00 | 46 | 1019.4 |